Location: Beccas
(43.4309°N, 0.1528°E)
Time: 23:42:15
(UTC+00:00)

SL-08 RB Rocket - Pass Details

Date: 15 October 2021
Orbit: 646 x 683 km, 97.8° (Epoch: 26 November)

Event Time Altitude Azimuth Distance (km) Brightness Sun altitude
Rises 18:21:51 0° 156° (SSE) 2,962 6.8 -12.7°
Reaches altitude 10° 18:24:04 10° 153° (SSE) 2,060 6.0 -13.1°
Maximum altitude 18:28:29 60° 74° (ENE) 756 3.7 -13.9°
Drops below altitude 10° 18:33:00 10° 354° (N) 2,098 6.4 -14.7°
Sets 18:35:16 0° 351° (N) 3,022 7.2 -15.1°
